User: anonymous   Login
Location: Observatoire
(46.1952°N, 5.3391°E)
Time: 21:06:54
(UTC+02:00)
Language:

SEEDS - Orbit

View from above orbital plane
View from above orbital plane
View from above satellite
View from above satellite

Ground track
Ground track

The orbit data is extracted from the following two-line orbital elements,

1 32791U 08021J   24112.88607949  .00021889  00000-0  16525-2 0  9993
2 32791  97.6834  84.4456 0007037 122.2944 237.8964 15.02399809868145
Epoch (UTC): 21 April 2024 21:15:57
Eccentricity: 0.0007037
inclination: 97.6834°
perigee height: 554 km
apogee height: 564 km
right ascension of ascending node: 84.4456°
argument of perigee: 122.2944°
revolutions per day: 15.02399809
mean anomaly at epoch: 237.8964°
orbit number at epoch: 86814

The dashed part of the orbit path shows where the satellite is in the earth's shadow,  

DLR